• In Hungary
  • List of Countries
  • For 7 days
  • Water Temperature
  • Satellite Maps
  • Weather Map
  • News
  • Weather Widgets
  • user-avatar
    Login

    Hourly Weather Blichowo

    Today, 21 September, Friday

    Time Temperature Precipitation Wind Pressure Humidity
    00:00 +20°C° 0 mm 3 mps 751 mmHg 64%
    01:00 +20°C° 0 mm 3 mps 751 mmHg 65%
    02:00 +19°C° 0 mm 3 mps 751 mmHg 65%
    03:00 +19°C° 0 mm 3 mps 751 mmHg 65%
    04:00 +19°C° 0 mm 3 mps 750 mmHg 66%
    05:00 +19°C° 0 mm 3 mps 750 mmHg 65%
    06:00 +19°C° 0 mm 3 mps 750 mmHg 64%
    07:00 +20°C° 0 mm 4 mps 750 mmHg 63%
    08:00 +22°C° 0 mm 4 mps 750 mmHg 57%
    09:00 +23°C° 0 mm 5 mps 750 mmHg 52%
    10:00 +26°C° 0 mm 5 mps 749 mmHg 46%
    11:00 +27°C° 0 mm 6 mps 749 mmHg 43%
    12:00 +28°C° 0 mm 6 mps 748 mmHg 40%
    13:00 +29°C° 0 mm 6 mps 747 mmHg 36%
    14:00 +28°C° 0 mm 6 mps 747 mmHg 38%
    15:00 +28°C° 0 mm 5 mps 746 mmHg 39%
    16:00 +28°C° 0 mm 5 mps 746 mmHg 40%
    17:00 +26°C° 0 mm 5 mps 745 mmHg 43%
    18:00 +25°C° 0 mm 5 mps 745 mmHg 46%
    19:00 +22°C° 0 mm 5 mps 744 mmHg 49%
    20:00 +22°C° 0 mm 5 mps 745 mmHg 51%
    21:00 +22°C° 0 mm 6 mps 745 mmHg 53%
    22:00 +22°C° 0 mm 6 mps 745 mmHg 55%
    23:00 +20°C° 0.5 mm 6 mps 746 mmHg 63%

    Tomorrow, 22 September, Saturday

    Time Temperature Precipitation Wind Pressure Humidity
    00:00 +16°C° 0.5 mm 7 mps 746 mmHg 71%
    01:00 +14°C° 0.5 mm 7 mps 747 mmHg 79%
    02:00 +14°C° 0.7 mm 6 mps 748 mmHg 79%
    03:00 +13°C° 0.7 mm 5 mps 749 mmHg 79%
    04:00 +12°C° 0.7 mm 4 mps 749 mmHg 79%
    05:00 +12°C° 0 mm 4 mps 750 mmHg 77%
    06:00 +13°C° 0 mm 4 mps 750 mmHg 74%
    07:00 +13°C° 0 mm 5 mps 751 mmHg 72%
    08:00 +13°C° 0 mm 5 mps 751 mmHg 65%
    09:00 +14°C° 0 mm 6 mps 751 mmHg 59%
    10:00 +15°C° 0 mm 7 mps 751 mmHg 52%
    11:00 +16°C° 0 mm 7 mps 750 mmHg 51%
    12:00 +16°C° 0 mm 7 mps 750 mmHg 50%
    13:00 +16°C° 0 mm 7 mps 750 mmHg 48%
    14:00 +16°C° 0 mm 7 mps 750 mmHg 49%
    15:00 +16°C° 0 mm 6 mps 750 mmHg 50%
    16:00 +16°C° 0 mm 6 mps 750 mmHg 50%
    17:00 +15°C° 0 mm 5 mps 750 mmHg 54%
    18:00 +13°C° 0 mm 4 mps 751 mmHg 58%
    19:00 +12°C° 0 mm 4 mps 751 mmHg 62%
    20:00 +12°C° 0 mm 4 mps 751 mmHg 63%
    21:00 +12°C° 0 mm 4 mps 751 mmHg 65%
    22:00 +12°C° 0 mm 5 mps 751 mmHg 67%
    23:00 +10°C° 0 mm 5 mps 751 mmHg 68%

    Day after tomorrow, 23 September, Sunday

    Time Temperature Precipitation Wind Pressure Humidity
    00:00 +10°C° 0 mm 5 mps 751 mmHg 70%
    01:00 +9°C° 0 mm 5 mps 751 mmHg 71%
    02:00 +9°C° 0 mm 5 mps 751 mmHg 72%
    03:00 +9°C° 0 mm 5 mps 751 mmHg 72%
    04:00 +8°C° 0 mm 5 mps 751 mmHg 72%
    05:00 +9°C° 0 mm 6 mps 752 mmHg 71%
    06:00 +9°C° 0 mm 6 mps 752 mmHg 70%
    07:00 +9°C° 0 mm 6 mps 752 mmHg 69%
    08:00 +10°C° 0 mm 6 mps 752 mmHg 65%
    09:00 +11°C° 0 mm 7 mps 752 mmHg 60%
    10:00 +14°C° 0 mm 7 mps 752 mmHg 55%
    11:00 +14°C° 0 mm 7 mps 752 mmHg 52%
    12:00 +15°C° 0 mm 7 mps 752 mmHg 48%
    13:00 +16°C° 0 mm 6 mps 752 mmHg 45%
    14:00 +16°C° 0 mm 6 mps 751 mmHg 44%
    15:00 +16°C° 0 mm 5 mps 751 mmHg 44%
    16:00 +15°C° 0 mm 5 mps 751 mmHg 43%
    17:00 +15°C° 0 mm 4 mps 750 mmHg 48%
    18:00 +14°C° 0 mm 3 mps 750 mmHg 52%
    19:00 +13°C° 0 mm 3 mps 749 mmHg 56%
    20:00 +12°C° 0.2 mm 3 mps 748 mmHg 62%
    21:00 +12°C° 0.2 mm 3 mps 747 mmHg 67%
    22:00 +12°C° 0.2 mm 3 mps 747 mmHg 73%
    23:00 +12°C° 1.7 mm 4 mps 745 mmHg 78%

    24 September, Monday

    Time Temperature Precipitation Wind Pressure Humidity
    00:00 +12°C° 1.7 mm 4 mps 744 mmHg 83%
    01:00 +12°C° 1.7 mm 5 mps 742 mmHg 87%
    02:00 +12°C° 5.1 mm 5 mps 740 mmHg 89%
    03:00 +11°C° 5.1 mm 6 mps 738 mmHg 90%
    04:00 +13°C° 5.1 mm 6 mps 736 mmHg 92%
    05:00 +14°C° 3.8 mm 7 mps 734 mmHg 90%
    06:00 +15°C° 3.8 mm 8 mps 733 mmHg 89%
    07:00 +16°C° 3.8 mm 9 mps 731 mmHg 87%
    08:00 +16°C° 0.6 mm 10 mps 730 mmHg 82%
    09:00 +17°C° 0.6 mm 10 mps 730 mmHg 77%
    10:00 +17°C° 0.6 mm 10 mps 729 mmHg 72%
    11:00 +14°C° 0.7 mm 11 mps 730 mmHg 75%
    12:00 +13°C° 0.7 mm 11 mps 731 mmHg 78%
    13:00 +10°C° 0.7 mm 12 mps 733 mmHg 81%
    14:00 +9°C° 0.4 mm 12 mps 735 mmHg 80%
    15:00 +9°C° 0.4 mm 13 mps 738 mmHg 79%
    16:00 +8°C° 0.4 mm 13 mps 740 mmHg 78%
    17:00 +8°C° 0.3 mm 13 mps 742 mmHg 77%
    18:00 +8°C° 0.3 mm 13 mps 744 mmHg 77%
    19:00 +7°C° 0.3 mm 13 mps 746 mmHg 76%
    20:00 +7°C° 0.2 mm 12 mps 747 mmHg 74%
    21:00 +7°C° 0.2 mm 11 mps 749 mmHg 72%
    22:00 +6°C° 0.2 mm 11 mps 750 mmHg 70%
    23:00 +6°C° 0.1 mm 10 mps 751 mmHg 69%

    25 September, Tuesday

    Time Temperature Precipitation Wind Pressure Humidity
    00:00 +6°C° 0.1 mm 9 mps 752 mmHg 69%
    01:00 +5°C° 0.1 mm 9 mps 753 mmHg 68%
    02:00 +5°C° 0 mm 8 mps 754 mmHg 68%
    03:00 +5°C° 0 mm 8 mps 754 mmHg 68%
    04:00 +5°C° 0 mm 8 mps 755 mmHg 68%
    05:00 +5°C° 0 mm 8 mps 756 mmHg 66%
    06:00 +6°C° 0 mm 8 mps 757 mmHg 65%
    07:00 +6°C° 0 mm 8 mps 757 mmHg 63%
    08:00 +7°C° 0 mm 8 mps 758 mmHg 56%
    09:00 +10°C° 0 mm 9 mps 758 mmHg 49%
    10:00 +11°C° 0 mm 9 mps 758 mmHg 43%
    11:00 +11°C° 0.1 mm 9 mps 758 mmHg 46%
    12:00 +11°C° 0.1 mm 9 mps 758 mmHg 49%
    13:00 +12°C° 0.1 mm 9 mps 758 mmHg 52%
    14:00 +11°C° 0.1 mm 9 mps 757 mmHg 54%
    15:00 +11°C° 0.1 mm 9 mps 756 mmHg 56%
    16:00 +11°C° 0.1 mm 8 mps 756 mmHg 58%
    17:00 +10°C° 1 mm 9 mps 755 mmHg 66%
    18:00 +8°C° 1 mm 9 mps 755 mmHg 75%
    19:00 +7°C° 1 mm 10 mps 754 mmHg 83%
    20:00 +7°C° 1 mm 9 mps 754 mmHg 82%
    21:00 +8°C° 1 mm 7 mps 753 mmHg 80%
    22:00 +8°C° 1 mm 6 mps 753 mmHg 79%
    23:00 +7°C° 0 mm 6 mps 753 mmHg 78%

    26 September, Wednesday

    Time Temperature Precipitation Wind Pressure Humidity
    00:00 +7°C° 0 mm 6 mps 754 mmHg 78%
    01:00 +5°C° 0 mm 7 mps 754 mmHg 77%
    02:00 +5°C° 0 mm 6 mps 755 mmHg 78%
    03:00 +5°C° 0 mm 6 mps 755 mmHg 79%
    04:00 +5°C° 0 mm 6 mps 756 mmHg 80%
    05:00 +7°C° 0 mm 6 mps 757 mmHg 80%
    06:00 +7°C° 0 mm 5 mps 757 mmHg 80%
    07:00 +7°C° 0 mm 5 mps 758 mmHg 80%
    08:00 +9°C° 0 mm 5 mps 759 mmHg 73%
    09:00 +10°C° 0 mm 5 mps 759 mmHg 65%
    10:00 +13°C° 0 mm 6 mps 760 mmHg 58%
    11:00 +13°C° 0 mm 6 mps 760 mmHg 54%
    12:00 +14°C° 0 mm 6 mps 760 mmHg 51%
    13:00 +15°C° 0 mm 6 mps 760 mmHg 47%
    14:00 +14°C° 0 mm 5 mps 760 mmHg 49%
    15:00 +14°C° 0 mm 4 mps 760 mmHg 50%
    16:00 +14°C° 0 mm 3 mps 760 mmHg 51%
    17:00 +12°C° 0 mm 3 mps 760 mmHg 56%
    18:00 +11°C° 0 mm 3 mps 760 mmHg 60%
    19:00 +10°C° 0 mm 2 mps 760 mmHg 64%
    20:00 +10°C° 0 mm 3 mps 760 mmHg 69%
    21:00 +9°C° 0 mm 3 mps 761 mmHg 74%
    22:00 +9°C° 0 mm 3 mps 761 mmHg 78%
    23:00 +9°C° 0 mm 3 mps 760 mmHg 83%
    Show more